Wind_Speed
8 8 8 7 7 7 8 8 8 8 9 9 9 10 10 11 11 11 12 13 13 14 16 16 16 16 17 17 18 18 18 19 19 20 21 22 22 23 23 23 24 25 25
9 9 8 8 8 8 9 9 9 10 10 10 10 10 11 11 11 11 12 12 13 14 15 15 16 17 17 18 18 18 19 19 19 19 20 21 22 23 23 24 26 26 27
9 9 9 9 9 9 10 10 10 11 11 11 11 11 12 12 12 12 12 13 13 14 15 15 16 17 18 18 18 18 19 19 20 20 21 22 22 23 25 25 26 26 27
10 10 10 10 10 10 10 11 12 12 12 12 12 12 13 13 13 13 13 14 14 15 15 16 16 16 16 17 17 18 19 20 21 21 22 22 23 24 25 26 26 27 27
11 11 11 11 11 12 12 12 12 13 13 13 13 13 13 14 14 15 15 16 17 16 16 17 17 17 17 17 18 19 20 21 21 22 22 23 24 26 26 27 28 28 28
13 12 13 13 13 13 13 13 13 14 13 13 13 14 15 15 15 16 16 16 17 17 18 18 18 18 18 19 19 20 21 21 22 23 23 24 25 26 28 28 29 29 28
14 14 14 14 14 14 14 14 14 14 15 15 15 15 15 16 16 17 17 17 18 19 19 19 19 19 20 20 21 21 22 22 23 24 25 25 26 27 28 28 28 28 28
16 15 16 15 14 15 15 15 16 15 16 17 17 17 17 17 17 18 18 18 19 19 19 20 20 20 21 22 22 23 24 24 24 25 25 26 27 28 28 28 27 28 29
17 16 17 16 15 16 16 16 16 17 18 18 18 18 18 18 18 19 19 19 19 19 20 20 21 21 22 23 23 24 24 25 26 26 27 27 28 28 28 28 29 30 31
20 18 18 17 17 17 18 18 18 18 19 19 19 19 20 20 20 20 20 20 20 20 21 21 22 23 23 24 24 25 25 26 27 28 28 29 29 29 29 30 31 31 31
22 20 19 20 20 20 20 20 20 20 20 20 21 21 21 22 21 21 21 22 22 22 22 23 24 24 24 25 26 26 26 27 28 28 29 30 30 31 31 31 32 32 33
25 24 23 23 23 23 23 23 23 23 23 23 23 23 23 23 23 24 24 24 23 24 24 25 26 26 27 27 28 28 28 28 29 29 30 31 31 31 32 32 32 33 33
28 28 27 26 26 26 27 27 26 26 26 25 25 25 25 25 25 25 25 26 26 26 27 27 27 28 29 30 30 30 30 31 31 31 31 32 32 33 33 33 33 33 33
32 31 30 30 29 29 29 29 29 28 28 27 27 27 27 27 27 28 28 28 28 29 29 29 30 30 31 31 31 31 31 32 32 32 33 33 33 33 33 33 33 33 34
35 34 33 33 32 31 31 31 31 31 30 30 29 29 29 29 30 30 30 30 30 30 31 31 31 31 31 32 32 32 32 32 32 33 33 34 34 34 34 34 33 33 33
36 35 34 33 33 33 32 32 32 32 31 31 31 31 30 30 30 30 31 32 32 31 31 32 32 32 32 32 32 33 33 33 34 34 34 34 33 33 33 33 33 33 33
39 37 35 34 34 34 34 33 33 32 32 32 32 32 32 32 32 32 32 32 32 32 32 32 32 32 32 32 32 33 33 34 34 35 34 34 34 34 33 33 34 34 34
37 35 34 35 34 33 33 32 32 32 33 33 33 33 34 34 33 33 33 33 33 33 33 33 32 33 33 33 33 33 34 35 35 35 35 34 35 35 35 35 34 34 34
38 37 36 35 34 34 33 33 33 33 34 34 34 34 35 35 34 34 34 34 34 34 34 34 34 34 34 34 34 35 35 35 35 35 35 35 35 35 35 35 35 34 34
38 37 36 35 35 35 35 35 35 35 35 35 35 35 35 35 35 35 35 35 36 35 35 35 35 35 35 35 35 35 35 34 34 35 35 35 35 35 35 35 35 34 33
37 37 36 36 37 37 36 36 36 37 37 37 37 36 36 36 36 36 35 35 36 36 36 36 36 36 35 35 35 35 35 34 34 35 35 35 35 35 35 34 34 34 33
36 36 36 36 37 37 37 37 37 37 37 37 37 36 36 36 36 36 36 36 36 36 36 36 36 36 35 35 35 35 35 35 35 35 35 35 35 34 34 34 34 34 34
36 36 36 37 37 37 36 37 37 37 37 36 37 37 37 36 36 36 36 36 36 36 36 36 36 36 35 35 35 35 35 35 35 35 35 35 34 34 34 33 33 33 33
35 35 35 36 36 36 36 36 37 37 37 37 36 36 36 36 35 35 36 36 35 35 35 35 35 35 35 35 35 35 35 35 36 35 35 35 34 34 34 34 34 34 34
34 34 34 35 35 35 35 35 36 36 35 35 35 35 35 35 35 35 36 36 35 35 35 35 35 36 36 35 35 35 35 35 35 35 35 34 34 34 34 35 35 35 35
33 33 34 34 34 34 34 35 34 34 35 35 35 35 35 35 35 35 35 35 35 35 36 36 36 36 36 35 35 35 35 36 36 36 35 34 34 34 35 35 35 35 35
Wind_Direction
339 334 328 326 323 322 322 320 317 316 311 307 300 297 293 293 291 289 289 290 290 290 286 282 282 282 282 281 282 281 278 279 280 279 280 281 283 284 286 285 286 287 287
336 335 330 324 321 320 320 317 316 314 312 309 307 302 299 297 294 292 291 291 290 291 290 286 284 283 282 282 281 281 280 281 281 282 283 282 282 283 286 288 288 287 287
333 332 329 326 322 319 317 314 314 315 309 304 305 304 302 298 296 295 294 292 292 292 292 291 290 289 284 283 282 282 282 283 283 285 285 285 283 284 287 288 288 289 289
327 326 326 326 326 324 318 316 314 315 314 308 304 305 303 298 296 296 296 296 294 293 293 292 292 291 288 287 284 285 287 288 288 289 288 288 287 287 289 289 289 290 290
322 320 320 321 321 322 322 318 318 320 317 313 307 307 307 304 300 297 296 295 295 294 293 292 292 291 290 289 287 288 289 290 290 291 290 289 290 290 291 291 290 290 291
318 317 318 317 318 318 319 319 320 321 318 315 311 308 308 306 304 302 299 298 297 295 293 292 291 291 290 290 290 291 291 292 291 291 291 292 293 293 291 290 291 290 291
313 312 314 314 314 316 314 315 316 316 317 315 312 309 306 306 306 304 300 298 297 296 294 292 291 289 290 291 292 292 292 292 292 293 292 292 293 293 291 292 293 292 292
309 306 308 308 308 311 312 312 313 312 313 313 310 309 306 305 304 303 301 299 297 297 296 294 292 290 290 291 290 291 292 292 293 294 294 294 295 295 295 295 294 294 295
304 302 302 305 306 307 309 310 311 312 312 311 309 307 305 304 304 304 301 299 297 297 296 296 295 294 293 293 292 292 291 291 292 292 293 294 296 296 296 295 295 295 295
297 300 301 304 306 306 306 306 307 308 309 309 307 306 305 303 303 303 302 299 298 297 296 295 295 295 295 295 294 293 292 291 291 292 293 294 296 296 295 294 294 294 295
296 298 297 299 301 303 303 303 303 304 306 306 305 305 304 303 302 301 301 299 297 296 295 295 295 295 295 294 294 293 293 292 292 293 293 294 295 295 294 294 294 294 295
290 291 292 293 295 298 300 300 299 300 302 303 303 303 303 303 302 300 300 299 298 297 296 295 294 293 293 294 294 293 292 292 293 293 294 294 295 294 295 295 295 295 295
287 286 287 289 290 293 295 296 296 297 298 299 300 300 300 300 300 300 298 297 297 297 297 297 296 294 293 293 293 293 292 291 292 292 293 294 294 295 295 296 296 296 296
286 287 286 287 288 290 291 293 294 294 295 295 296 297 297 296 296 296 296 295 295 295 296 295 294 294 293 293 293 293 292 292 292 293 293 294 295 295 296 297 296 296 296
284 284 285 288 289 287 289 292 292 291 292 293 294 294 295 295 295 294 294 295 295 295 295 295 295 294 294 293 293 292 291 292 293 294 294 294 295 295 296 297 297 296 296
280 279 281 283 285 285 286 289 290 289 290 291 292 293 293 294 295 296 295 295 294 295 296 296 295 294 294 293 291 290 291 292 293 294 295 295 295 295 296 297 297 297 297
277 278 278 282 284 284 285 287 287 287 288 289 291 292 293 293 294 294 295 295 295 295 295 295 295 294 293 292 291 291 291 292 293 294 294 294 295 296 296 297 297 297 297
276 277 280 282 284 285 286 287 288 289 289 289 290 291 292 292 292 293 293 294 294 294 294 293 293 293 293 293 292 292 292 293 294 294 294 293 294 295 296 296 296 296 296
279 280 281 283 284 284 285 286 288 289 289 289 290 290 291 291 291 291 291 292 293 293 293 292 292 292 292 292 292 292 292 293 294 294 293 293 294 294 295 295 295 296 296
278 279 280 281 281 282 283 285 286 288 289 290 291 291 290 290 289 290 291 292 293 292 291 291 291 291 291 292 293 294 294 293 294 294 293 293 294 294 294 294 294 295 295
276 278 279 279 279 280 282 283 284 286 287 289 290 291 290 290 289 289 290 290 292 292 292 291 291 292 292 292 293 294 294 293 293 294 294 294 295 295 295 294 294 294 293
275 276 276 276 277 278 280 282 284 285 286 288 288 289 290 290 290 289 289 289 290 292 292 292 291 291 291 292 292 292 292 292 293 293 294 293 294 294 294 294 294 293 293
274 273 274 274 276 277 279 281 283 284 286 287 288 288 289 289 289 289 289 289 290 291 291 291 291 292 291 291 291 291 291 292 293 294 294 294 293 293 294 293 293 293 292
274 274 274 274 275 276 279 281 282 283 284 285 286 287 288 288 288 288 289 290 290 290 290 291 291 292 291 291 291 291 291 292 293 294 293 292 292 291 292 292 292 292 292
273 274 274 275 276 277 279 280 281 282 282 284 286 287 287 287 288 288 288 289 289 289 290 291 291 292 291 291 291 291 291 291 292 293 292 291 291 292 292 292 291 291 291
272 273 274 276 277 278 279 281 281 281 283 285 286 286 286 286 287 287 288 289 289 290 290 290 291 291 291 291 291 291 291 291 291 292 292 291 291 291 292 292 292 291 291
Height
5888 5887 5885 5884 5883 5882 5881 5880 5878 5877 5876 5875 5873 5872 5871 5870 5870 5869 5869 5868 5867 5866 5865 5864 5863 5862 5862 5861 5860 5859 5858 5858 5858 5857 5856 5854 5853 5852 5851 5850 5848 5847 5846
5887 5886 5885 5883 5882 5881 5880 5878 5877 5876 5874 5873 5871 5870 5869 5868 5867 5866 5865 5864 5863 5862 5861 5860 5859 5858 5857 5856 5855 5854 5854 5853 5852 5852 5850 5849 5848 5847 5845 5844 5842 5840 5839
5887 5885 5884 5883 5881 5880 5878 5876 5875 5873 5872 5870 5869 5867 5866 5865 5864 5863 5862 5861 5860 5859 5857 5856 5855 5854 5852 5851 5850 5849 5849 5848 5847 5846 5845 5844 5842 5841 5839 5838 5836 5834 5832
5886 5884 5883 5881 5880 5878 5876 5874 5873 5871 5869 5867 5866 5865 5864 5863 5862 5860 5859 5858 5856 5855 5854 5852 5851 5850 5848 5847 5846 5845 5844 5843 5842 5841 5839 5838 5836 5834 5833 5831 5829 5827 5825
5884 5883 5881 5879 5878 5876 5874 5872 5870 5868 5866 5865 5863 5862 5861 5860 5858 5857 5855 5854 5853 5851 5850 5848 5847 5846 5844 5843 5842 5840 5839 5838 5836 5835 5833 5832 5830 5828 5826 5824 5822 5820 5818
5882 5880 5879 5877 5875 5873 5872 5870 5868 5866 5864 5862 5861 5859 5858 5857 5855 5853 5852 5850 5848 5847 5845 5844 5842 5841 5840 5838 5837 5835 5834 5832 5831 5829 5828 5826 5824 5822 5819 5817 5815 5813 5811
5879 5877 5876 5874 5872 5871 5869 5867 5865 5863 5861 5859 5858 5856 5855 5853 5851 5849 5847 5846 5844 5842 5841 5839 5837 5836 5835 5833 5832 5830 5829 5827 5825 5824 5822 5820 5817 5815 5813 5810 5808 5806 5804
5875 5874 5873 5871 5869 5868 5866 5864 5862 5860 5858 5856 5855 5853 5851 5849 5847 5845 5843 5842 5840 5838 5836 5834 5833 5831 5830 5828 5826 5825 5823 5821 5819 5817 5815 5813 5811 5808 5806 5804 5801 5799 5797
5871 5870 5869 5867 5866 5864 5862 5860 5859 5857 5855 5853 5851 5849 5847 5845 5843 5841 5839 5837 5835 5833 5832 5830 5828 5826 5824 5822 5820 5819 5817 5815 5812 5810 5808 5806 5804 5801 5799 5797 5794 5792 5789
5867 5866 5865 5863 5862 5860 5858 5857 5855 5853 5851 5849 5847 5845 5843 5841 5839 5837 5835 5833 5831 5829 5827 5825 5823 5821 5818 5816 5814 5812 5810 5808 5806 5804 5801 5799 5797 5794 5792 5789 5787 5784 5781
5862 5861 5860 5859 5857 5856 5854 5852 5850 5849 5847 5845 5843 5840 5838 5836 5834 5832 5830 5827 5825 5823 5821 5819 5817 5814 5812 5810 5808 5806 5803 5801 5799 5797 5794 5792 5789 5786 5784 5781 5779 5776 5773
5856 5855 5855 5853 5852 5850 5848 5847 5845 5843 5842 5839 5837 5835 5833 5831 5828 5826 5824 5822 5819 5817 5815 5812 5810 5808 5805 5803 5801 5798 5796 5794 5791 5789 5786 5784 5781 5778 5776 5773 5770 5767 5764
5849 5848 5848 5846 5845 5843 5842 5840 5839 5837 5835 5833 5831 5829 5827 5824 5822 5820 5817 5815 5813 5810 5808 5805 5803 5800 5798 5795 5793 5791 5788 5786 5783 5781 5778 5775 5773 5770 5767 5764 5762 5759 5756
5842 5841 5839 5838 5837 5836 5834 5833 5831 5830 5828 5826 5824 5822 5820 5818 5815 5813 5810 5808 5805 5803 5800 5798 5795 5792 5790 5787 5785 5782 5780 5777 5775 5772 5770 5767 5764 5761 5759 5756 5753 5750 5747
5833 5832 5830 5829 5828 5827 5826 5825 5823 5822 5820 5818 5816 5814 5812 5810 5807 5805 5802 5800 5797 5795 5792 5789 5787 5784 5781 5779 5776 5774 5771 5768 5766 5764 5761 5758 5755 5752 5749 5746 5743 5740 5738
5823 5822 5821 5820 5819 5818 5817 5815 5814 5812 5811 5809 5807 5806 5803 5801 5799 5796 5794 5791 5788 5786 5783 5781 5778 5775 5773 5770 5767 5765 5762 5760 5757 5755 5752 5749 5746 5743 5740 5737 5734 5731 5728
5813 5812 5812 5811 5810 5808 5807 5806 5805 5803 5802 5800 5798 5796 5794 5792 5790 5787 5785 5782 5779 5777 5774 5772 5769 5766 5764 5761 5759 5756 5753 5751 5748 5745 5742 5739 5736 5734 5731 5728 5725 5722 5719
5803 5802 5802 5801 5800 5799 5798 5797 5795 5794 5793 5791 5789 5787 5785 5782 5780 5778 5775 5773 5770 5768 5765 5762 5760 5757 5754 5752 5749 5747 5744 5741 5738 5735 5732 5729 5727 5724 5721 5718 5715 5712 5709
5793 5792 5792 5791 5790 5789 5788 5787 5786 5785 5783 5781 5779 5777 5775 5773 5770 5768 5765 5763 5761 5758 5755 5753 5750 5747 5745 5742 5739 5737 5734 5731 5728 5726 5722 5720 5717 5714 5711 5708 5705 5702 5699
5782 5782 5780 5780 5780 5779 5778 5777 5776 5775 5773 5771 5769 5767 5765 5762 5760 5758 5755 5753 5750 5748 5745 5743 5740 5737 5735 5732 5729 5727 5724 5721 5718 5716 5713 5710 5707 5704 5701 5698 5695 5692 5690
5771 5771 5770 5769 5769 5769 5768 5767 5766 5764 5762 5761 5759 5756 5754 5752 5750 5747 5745 5743 5740 5738 5735 5732 5730 5727 5724 5722 5719 5716 5714 5711 5708 5705 5702 5699 5697 5694 5691 5688 5685 5683 5680
5759 5759 5759 5759 5758 5758 5757 5756 5755 5753 5751 5749 5747 5746 5743 5741 5739 5737 5735 5732 5730 5727 5724 5722 5719 5716 5714 5711 5709 5706 5703 5701 5698 5695 5692 5689 5686 5683 5680 5678 5675 5673 5670
5748 5748 5748 5748 5747 5746 5745 5745 5743 5742 5740 5738 5737 5735 5733 5730 5728 5726 5724 5721 5719 5716 5714 5711 5708 5706 5703 5701 5698 5695 5693 5690 5687 5685 5682 5679 5676 5673 5670 5668 5665 5662 5660
5737 5737 5737 5736 5736 5735 5734 5733 5732 5731 5729 5727 5725 5723 5721 5719 5717 5715 5712 5710 5708 5705 5703 5700 5698 5695 5692 5690 5687 5684 5682 5679 5676 5674 5671 5668 5665 5662 5660 5657 5655 5652 5650
5726 5726 5726 5725 5724 5724 5723 5722 5721 5719 5718 5716 5714 5712 5710 5708 5706 5704 5702 5699 5697 5694 5692 5689 5687 5684 5681 5679 5676 5673 5671 5668 5665 5663 5660 5657 5655 5652 5649 5647 5644 5642 5639
5715 5715 5715 5715 5714 5713 5712 5711 5710 5708 5707 5705 5703 5701 5699 5697 5695 5693 5691 5688 5686 5684 5681 5678 5676 5673 5670 5667 5665 5662 5660 5657 5654 5651 5649 5646 5644 5641 5638 5636 5633 5631 5628